NOAA 16 DEB, 41277

Orbit data source: Space-Track

NOAA 16 DEB, 41277 is space debris in SSO originally from a launch on Thu, 21 Sep 2000 UTC launched from the Air Force Western Test Range (AFWTR). Debris objects in space refer to the collection of defunct objects orbiting the Earth. Examples of debris include non-operational satellites, rocket bodies, and fragments generated from explosions, collisions, or faulty payload assembly.

Loading next visibility...
NOAA 16 DEB details
Identifier
41277, 2000-055GD
Orbit
SSO
Last TLE update1 day ago
Origin
Flag of USNOAA (US)
ManufacturerUnknown
MissionSpacecraft
Bus & MotorUnknown
MassUnknown
Launch date (UTC)
2000-09-21 (24 years ago)
Launch vehicleUnknown
Launch site
Air Force Western Test Range (AFWTR)
Object type
Payload
Rocket body
Debris
Shape & HBRUnknown
Radar Cross SectionSmall (<0.1 m²)

Expand to show TLE details & history

TLE from 1 day ago
0 NOAA 16 DEB
1 41277U 00055GD  24360.69527656  .00019515  00000-0  59109-2 0  9999
2 41277  98.9812 165.6055 0038308 296.6297  63.0969 14.41865595468538
Epoch: 2024-12-25T16:41Z
Definitive object data (Epoch: 2024-12-25T16:41:11.894Z)
Latitude-0.00001°
Longitude-179.37939°
Altitude742.998 km
Speed7.49 km/s
True Right ascension11h 02m 25s
True Declination0° 00' 00"
Sunlit
Object was in daylight at TLE epoch
Visualization TLE readout
Latitude57.42252°
Longitude167.55696°
Altitude777.46 km
Speed7.463 km/s
Apparent Right ascension08h 22m 30s
Apparent Declination13° 34' 14"
Sunlit
Object is in full shadow
Visualization observer readout
Local Sidereal Time18:58:54
Azimuth335.547° NNW
Elevation-33.089°
Doppler factor1
Orbital elements
Apogee altitude776.788 km
Perigee altitude722.179 km
Semi-major axis7,127.621 km
Eccentricity0.0038308
Inclination98.9812°
RAAN165.6055°
Arg. of periapsis296.6297°
True anomaly63.48922°
Mean anomaly63.0969°
Eccentric anomaly63.29297°
Mean motion3.60684 °/min
BSTAR0.0059109
Orbital period99.81 mins
Loading maneuver chart data...
Loading historical data...
Loading historical data...
Loading historical data...
Loading historical data...
Loading historical data...
Loading historical data...
Loading historical data...

NOAA 16 DEB Visibility forecast

Observer location: undefined°, undefined

Span
Click to sort rows by Start time (UTC) header in descending order
Start Az.
Max El. time (UTC)
Max El. Az.
Max El.
End time (UTC)
End Az.
8 mins2024-12-26 23:15:12.936Z40.707° NE2024-12-26 23:19:12.936Z95.306° ESE24.07°2024-12-26 23:23:12.936Z150.783° SSE
7 mins2024-12-27 00:55:12.936Z342.562° N2024-12-27 00:58:12.936Z283.937° WNW29.966°2024-12-27 01:02:12.936Z228.665° WSW
7 mins2024-12-27 10:28:12.936Z122.65° SE2024-12-27 10:31:12.936Z69.265° E29.856°2024-12-27 10:35:12.936Z7.243° NNE
6 mins2024-12-27 12:07:12.936Z220.401° SW2024-12-27 12:10:12.936Z269.802° W23.569°2024-12-27 12:13:12.936Z313.417° NW
|